FW1312 Weather Reports


Display with metric or nautical units.
time (UTC)temp
F
wind
direction
speed
MPH
gust
MPH
rain 1hr
in
rain 24hr
in
rain mn
in
humidity
%
barometer
mb
20260904163045 82 355 1.0 4.0 0.01 0.35 0.03 94 1014.1
20260904161524 81 5 2.0 4.0 0.01 0.35 0.03 94 1014.2
20260904160115 82 342 2.0 4.0 0.01 0.35 0.03 93 1014.2
20260904154541 82 258 2.0 4.0 0.01 0.44 0.03 94 1014.3
20260904153012 82 127 1.0 6.0 0.00 0.43 0.02 94 1014.2
20260904151555 82 88 3.0 7.0 0.00 0.43 0.02 94 1014.0
20260904150015 81 155 3.0 7.0 0.00 0.43 0.02 94 1014.0
20260904144543 81 181 2.0 8.0 0.00 0.44 0.02 93 1014.0
20260904143021 81 137 3.0 8.0 0.00 0.44 0.02 94 1014.1
20260904141505 81 134 3.0 8.0 0.00 0.44 0.02 94 1013.8
20260904140030 80 130 2.0 6.0 0.00 0.44 0.02 94 1013.8
20260904134501 79 85 2.0 8.0 0.00 0.45 0.02 93 1013.7
20260904133008 79 93 3.0 8.0 0.00 0.45 0.02 93 1013.6
20260904131537 78 75 2.0 5.0 0.00 0.45 0.02 93 1013.5
20260904130024 78 83 1.0 6.0 0.00 0.45 0.02 93 1013.3
20260904124525 78 103 2.0 6.0 0.00 0.45 0.02 93 1013.1
20260904123005 77 110 2.0 4.0 0.00 0.45 0.02 93 1013.0
20260904121555 77 115 1.0 4.0 0.00 0.45 0.02 93 1012.9
20260904120011 77 126 2.0 6.0 0.00 0.45 0.02 93 1012.5
20260904114529 77 101 1.0 6.0 0.00 0.45 0.02 93 1012.5
20260904113102 77 99 3.0 6.0 0.00 0.45 0.02 93 1012.4
20260904111529 77 117 2.0 4.0 0.00 0.45 0.02 93 1012.3
20260904110018 77 109 2.0 4.0 0.00 0.45 0.02 93 1012.3
20260904104549 77 130 1.0 3.0 0.00 0.45 0.02 93 1012.4